This demonstration page uses our WeatherBlox Daily Observations layout. Learn more.

Left ArrowRight Arrow

Hourly Observations for May 7, 2021

Temp ( °F °C ) Dew Point ( °F °C ) Humidity (%) Winds ( mph kmh ) Pressure ( in mb ) Visibility ( mi km ) Precip ( " mm )
12:20 am 00:20 Cloudy 49 9.4 47 8.3 93 93 W 5 7 30.01 1016 10 16 0.00 0.00
12:29 am 00:29 Cloudy with Light Rain 49 9.4 47 8.3 93 93 W 6 9 30.01 1016 6 10 0.01 0.25
12:53 am 00:53 Cloudy 49 9.4 47 8.3 93 93 W 6 9 30.00 1016 10 16 0.01 0.25
1:16 am 01:16 Cloudy 49 9.4 47 8.3 93 93 W 5 7 30.01 1016 10 16 N/A
1:38 am 01:38 Cloudy 49 9.4 47 8.3 93 93 W 5 7 30.00 1016 10 16 0.00 0.00
1:53 am 01:53 Cloudy with Light Rain 49 9.4 48 8.9 97 97 W 6 9 29.99 1016 8 13 0.00 0.00
2:10 am 02:10 Cloudy 49 9.4 47 8.3 93 93 W 6 9 30.00 1016 10 16 0.00 0.00
2:35 am 02:35 Cloudy 49 9.4 47 8.3 93 93 NW 9 15 30.00 1016 10 16 0.01 0.25
2:53 am 02:53 Cloudy with Light Rain 49 9.4 46 7.8 90 90 NNW 9 15 29.98 1015 8 13 0.01 0.25
3:07 am 03:07 Cloudy 48 8.9 45 7.2 89 89 NW 8 13 30.00 1016 9 14 0.00 0.00
3:53 am 03:53 Mostly Clear 46 7.8 42 5.6 86 86 NW 10 17 29.99 1016 10 16 0.00 0.00
4:53 am 04:53 Clear 43 6.1 40 4.4 89 89 NW 6 9 30.00 1016 9 14 N/A
5:53 am 05:53 Clear 43 6.1 40 4.4 89 89 WNW 8 13 30.02 1017 9 14 N/A
6:53 am 06:53 Partly Cloudy with Mist and Fog 41 5 39 3.9 93 93 WNW 7 11 30.03 1017 6 10 N/A
7:53 am 07:53 Sunny 44 6.7 40 4.4 85 85 WNW 8 13 30.05 1018 8 13 N/A
8:53 am 08:53 Sunny 47 8.3 41 5 80 80 NW 6 9 30.07 1018 10 16 N/A
9:53 am 09:53 Sunny 49 9.4 40 4.4 71 71 VRB 3 6 30.06 1018 10 16 N/A
10:53 am 10:53 Mostly Sunny 53 11.7 39 3.9 59 59 NW 6 9 30.07 1018 10 16 N/A
11:53 am 11:53 Sunny 57 13.9 40 4.4 53 53 VRB 6 9 30.06 1018 10 16 N/A
12:53 pm 12:53 Partly Cloudy 58 14.4 41 5 53 53 WNW 10 17 30.06 1018 10 16 N/A
1:53 pm 13:53 Mostly Cloudy 61 16.1 39 3.9 44 44 VRB 5 7 30.03 1017 10 16 N/A
2:53 pm 14:53 Mostly Cloudy 59 15 37 2.8 44 44 W 8 13 30.01 1016 10 16 N/A
3:53 pm 15:53 Partly Cloudy 63 17.2 38 3.3 40 40 W 8 13 29.98 1015 10 16 0.00 0.00
4:53 pm 16:53 Mostly Cloudy 61 16.1 38 3.3 43 43 WSW 7 11 29.95 1014 10 16 N/A
5:53 pm 17:53 Mostly Cloudy 58 14.4 42 5.6 56 56 N N/A 29.94 1014 10 16 0.00 0.00
6:53 pm 18:53 Cloudy with Light Rain 50 10 47 8.3 89 89 undefined N/A 30.00 1016 5 8 0.05 1.27
7:53 pm 19:53 Partly Cloudy 50 10 48 8.9 93 93 N N/A 29.95 1014 10 16 0.02 0.51
8:53 pm 20:53 Cloudy 50 10 48 8.9 93 93 N N/A 29.95 1014 10 16 N/A
9:53 pm 21:53 Partly Cloudy 49 9.4 47 8.3 93 93 N 6 9 29.97 1015 8 13 N/A
10:53 pm 22:53 Cloudy 50 10 46 7.8 86 86 NNW 6 9 30.00 1016 10 16 N/A
11:53 pm 23:53 Mostly Cloudy 47 8.3 39 3.9 74 74 NNW 7 11 30.01 1016 10 16 N/A

Powered by AerisWeather